QPF
0.03 0.04 0.03 0.03 0.01 0.02 0.02 0.04 0.04 0.02 0.01 0.01 0.01 0.01 0.01 0.02 0.02 0.02 0.02 0.01 0.01 0.01 0.01 0.00 0.01 0.02 0.03 0.05 0.05 0.03 0.03 0.03 0.04 0.05 0.06 0.08 0.09 0.08 0.07 0.06 0.04 0.04 0.05
0.03 0.04 0.04 0.03 0.02 0.02 0.04 0.07 0.06 0.03 0.02 0.02 0.01 0.01 0.00 0.01 0.01 0.01 0.01 0.01 0.01 0.02 0.01 0.01 0.01 0.01 0.01 0.03 0.05 0.05 0.03 0.03 0.04 0.05 0.06 0.09 0.13 0.12 0.12 0.10 0.07 0.06 0.06
0.02 0.03 0.05 0.04 0.03 0.02 0.03 0.03 0.03 0.02 0.02 0.03 0.03 0.02 0.01 0.01 0.01 0.02 0.01 0.01 0.01 0.03 0.02 0.02 0.02 0.01 0.01 0.03 0.06 0.06 0.04 0.05 0.05 0.04 0.04 0.06 0.07 0.09 0.11 0.12 0.11 0.10 0.08
0.03 0.03 0.03 0.03 0.03 0.02 0.02 0.02 0.02 0.02 0.01 0.01 0.02 0.03 0.02 0.01 0.02 0.02 0.03 0.03 0.03 0.04 0.03 0.03 0.03 0.03 0.03 0.04 0.04 0.03 0.05 0.07 0.06 0.05 0.05 0.06 0.05 0.05 0.06 0.09 0.11 0.10 0.11
0.04 0.03 0.03 0.03 0.03 0.03 0.02 0.02 0.02 0.03 0.02 0.01 0.02 0.01 0.01 0.02 0.03 0.04 0.05 0.05 0.05 0.04 0.04 0.05 0.05 0.05 0.05 0.04 0.04 0.04 0.05 0.08 0.09 0.08 0.08 0.08 0.07 0.06 0.05 0.06 0.06 0.07 0.09
0.04 0.04 0.04 0.04 0.04 0.03 0.03 0.03 0.03 0.04 0.03 0.02 0.02 0.01 0.01 0.01 0.02 0.04 0.04 0.03 0.03 0.03 0.04 0.05 0.05 0.06 0.06 0.06 0.06 0.06 0.06 0.07 0.07 0.09 0.10 0.11 0.08 0.07 0.06 0.04 0.04 0.05 0.06
0.09 0.07 0.05 0.05 0.05 0.04 0.04 0.04 0.04 0.03 0.03 0.02 0.01 0.02 0.01 0.01 0.02 0.02 0.03 0.02 0.02 0.02 0.03 0.04 0.04 0.05 0.06 0.07 0.07 0.07 0.08 0.09 0.09 0.10 0.10 0.10 0.16 0.08 0.05 0.04 0.03 0.03 0.04
0.14 0.13 0.08 0.07 0.06 0.06 0.06 0.05 0.05 0.04 0.04 0.02 0.02 0.02 0.02 0.02 0.02 0.02 0.03 0.02 0.02 0.02 0.02 0.03 0.03 0.04 0.06 0.08 0.11 0.13 0.12 0.11 0.10 0.10 0.09 0.08 0.10 0.06 0.04 0.04 0.06 0.04 0.04
0.12 0.13 0.15 0.19 0.13 0.08 0.06 0.07 0.06 0.05 0.04 0.03 0.03 0.02 0.02 0.02 0.02 0.02 0.02 0.02 0.01 0.01 0.01 0.01 0.02 0.04 0.06 0.09 0.11 0.12 0.11 0.08 0.08 0.09 0.08 0.06 0.05 0.05 0.04 0.05 0.06 0.06 0.05
0.18 0.17 0.23 0.27 0.26 0.12 0.07 0.07 0.05 0.05 0.06 0.06 0.05 0.04 0.03 0.04 0.06 0.04 0.01 0.01 0.00 0.00 0.00 0.01 0.02 0.02 0.04 0.05 0.05 0.05 0.05 0.06 0.07 0.07 0.06 0.05 0.05 0.05 0.04 0.05 0.06 0.06 0.05
0.17 0.14 0.22 0.22 0.18 0.10 0.09 0.13 0.10 0.09 0.10 0.11 0.08 0.04 0.03 0.04 0.04 0.02 0.01 0.01 0.01 0.01 0.01 0.02 0.01 0.01 0.02 0.02 0.03 0.04 0.05 0.05 0.04 0.04 0.04 0.05 0.06 0.05 0.03 0.03 0.04 0.05 0.04
0.10 0.13 0.16 0.15 0.08 0.07 0.09 0.11 0.08 0.07 0.07 0.07 0.05 0.03 0.03 0.03 0.02 0.02 0.01 0.02 0.02 0.01 0.01 0.01 0.02 0.02 0.02 0.02 0.02 0.02 0.02 0.02 0.02 0.02 0.02 0.03 0.05 0.04 0.03 0.02 0.02 0.02 0.03
0.06 0.07 0.10 0.10 0.07 0.05 0.05 0.04 0.04 0.03 0.04 0.03 0.03 0.04 0.03 0.03 0.02 0.02 0.01 0.02 0.02 0.02 0.02 0.02 0.02 0.02 0.02 0.01 0.01 0.01 0.01 0.01 0.02 0.02 0.02 0.02 0.03 0.03 0.03 0.03 0.02 0.03 0.03
0.04 0.09 0.10 0.10 0.10 0.05 0.03 0.03 0.03 0.03 0.03 0.04 0.04 0.04 0.03 0.03 0.03 0.02 0.02 0.03 0.02 0.02 0.02 0.01 0.01 0.01 0.02 0.01 0.01 0.01 0.01 0.01 0.01 0.02 0.02 0.02 0.02 0.02 0.03 0.03 0.03 0.04 0.03
0.05 0.06 0.06 0.05 0.04 0.04 0.03 0.02 0.03 0.03 0.03 0.04 0.04 0.03 0.02 0.03 0.04 0.03 0.03 0.02 0.02 0.02 0.02 0.01 0.01 0.02 0.03 0.02 0.01 0.01 0.02 0.02 0.02 0.02 0.02 0.02 0.02 0.02 0.02 0.02 0.03 0.03 0.03
0.03 0.07 0.06 0.04 0.04 0.03 0.03 0.02 0.03 0.03 0.04 0.05 0.04 0.04 0.04 0.04 0.04 0.03 0.02 0.02 0.02 0.02 0.01 0.01 0.01 0.02 0.02 0.02 0.02 0.02 0.02 0.02 0.03 0.03 0.03 0.03 0.02 0.02 0.02 0.02 0.03 0.03 0.03
0.03 0.07 0.05 0.04 0.04 0.05 0.04 0.03 0.03 0.04 0.05 0.06 0.05 0.05 0.05 0.04 0.04 0.04 0.03 0.02 0.02 0.02 0.01 0.01 0.01 0.01 0.02 0.03 0.03 0.03 0.03 0.03 0.03 0.03 0.03 0.02 0.01 0.01 0.02 0.02 0.02 0.02 0.03
0.05 0.06 0.08 0.13 0.13 0.09 0.08 0.08 0.08 0.08 0.08 0.09 0.07 0.06 0.05 0.05 0.04 0.04 0.04 0.04 0.03 0.03 0.02 0.02 0.02 0.02 0.02 0.03 0.04 0.04 0.04 0.03 0.03 0.03 0.03 0.02 0.02 0.02 0.02 0.02 0.02 0.01 0.02
0.08 0.11 0.14 0.15 0.13 0.10 0.11 0.13 0.14 0.13 0.12 0.08 0.05 0.05 0.04 0.05 0.05 0.05 0.03 0.03 0.03 0.04 0.03 0.03 0.03 0.04 0.04 0.05 0.07 0.07 0.05 0.03 0.03 0.03 0.02 0.01 0.01 0.03 0.04 0.03 0.02 0.01 0.01
0.04 0.07 0.10 0.07 0.08 0.10 0.07 0.06 0.10 0.11 0.06 0.03 0.03 0.03 0.04 0.05 0.05 0.04 0.03 0.04 0.04 0.04 0.05 0.06 0.07 0.08 0.07 0.09 0.10 0.11 0.07 0.05 0.04 0.03 0.02 0.02 0.03 0.04 0.04 0.02 0.02 0.02 0.02
0.01 0.02 0.03 0.04 0.05 0.08 0.06 0.05 0.06 0.06 0.05 0.04 0.04 0.05 0.06 0.05 0.04 0.03 0.03 0.03 0.05 0.06 0.07 0.08 0.09 0.10 0.11 0.15 0.16 0.14 0.10 0.07 0.05 0.04 0.04 0.04 0.03 0.03 0.02 0.02 0.02 0.02 0.03
0.03 0.03 0.03 0.04 0.05 0.09 0.10 0.07 0.05 0.03 0.03 0.03 0.03 0.03 0.04 0.03 0.02 0.02 0.02 0.03 0.04 0.06 0.08 0.10 0.12 0.15 0.17 0.18 0.17 0.14 0.10 0.08 0.07 0.07 0.06 0.04 0.03 0.03 0.02 0.02 0.02 0.02 0.03
0.03 0.03 0.03 0.02 0.04 0.06 0.11 0.11 0.03 0.02 0.02 0.02 0.02 0.01 0.02 0.02 0.02 0.02 0.02 0.03 0.04 0.05 0.05 0.06 0.06 0.05 0.06 0.08 0.11 0.11 0.10 0.10 0.09 0.05 0.02 0.02 0.01 0.02 0.02 0.02 0.02 0.03 0.03
0.02 0.02 0.03 0.03 0.03 0.03 0.03 0.03 0.02 0.01 0.02 0.02 0.01 0.02 0.02 0.02 0.02 0.02 0.02 0.02 0.02 0.02 0.02 0.03 0.02 0.02 0.03 0.03 0.05 0.08 0.11 0.09 0.05 0.03 0.03 0.02 0.02 0.02 0.02 0.03 0.04 0.04 0.06
0.04 0.04 0.05 0.04 0.03 0.02 0.02 0.02 0.02 0.02 0.02 0.02 0.02 0.03 0.03 0.03 0.03 0.02 0.02 0.01 0.01 0.01 0.02 0.02 0.02 0.02 0.03 0.04 0.06 0.07 0.06 0.04 0.03 0.04 0.04 0.03 0.04 0.04 0.04 0.04 0.05 0.05 0.05
0.06 0.06 0.05 0.03 0.02 0.03 0.03 0.03 0.03 0.02 0.02 0.02 0.02 0.02 0.02 0.02 0.02 0.01 0.01 0.01 0.01 0.01 0.01 0.01 0.02 0.02 0.03 0.05 0.06 0.04 0.03 0.04 0.04 0.03 0.02 0.02 0.03 0.03 0.03 0.03 0.04 0.04 0.03
MSLP
1012.52 1012.85 1013.09 1013.23 1013.27 1013.28 1013.30 1013.39 1013.60 1013.93 1014.34 1014.78 1015.18 1015.48 1015.64 1015.63 1015.50 1015.29 1015.08 1014.93 1014.89 1015.00 1015.24 1015.59 1016.01 1016.45 1016.87 1017.27 1017.64 1017.99 1018.34 1018.71 1019.10 1019.49 1019.88 1020.21 1020.46 1020.61 1020.63 1020.55 1020.38 1020.17 1019.94
1012.31 1012.70 1012.98 1013.13 1013.16 1013.12 1013.08 1013.12 1013.29 1013.59 1014.01 1014.49 1014.94 1015.29 1015.49 1015.51 1015.38 1015.15 1014.91 1014.73 1014.68 1014.77 1015.03 1015.40 1015.85 1016.33 1016.78 1017.18 1017.54 1017.87 1018.19 1018.53 1018.91 1019.32 1019.73 1020.13 1020.46 1020.70 1020.83 1020.84 1020.77 1020.63 1020.46
1011.96 1012.42 1012.78 1012.98 1013.03 1012.98 1012.91 1012.91 1013.03 1013.30 1013.72 1014.20 1014.68 1015.07 1015.30 1015.36 1015.24 1015.02 1014.77 1014.57 1014.50 1014.58 1014.82 1015.19 1015.64 1016.12 1016.56 1016.95 1017.28 1017.58 1017.87 1018.18 1018.55 1018.96 1019.42 1019.87 1020.29 1020.64 1020.88 1021.01 1021.04 1021.00 1020.91
1011.45 1012.00 1012.44 1012.72 1012.83 1012.81 1012.74 1012.70 1012.79 1013.03 1013.42 1013.89 1014.38 1014.80 1015.07 1015.16 1015.08 1014.87 1014.63 1014.42 1014.33 1014.38 1014.59 1014.94 1015.37 1015.81 1016.23 1016.59 1016.88 1017.14 1017.40 1017.69 1018.04 1018.46 1018.95 1019.46 1019.96 1020.40 1020.76 1021.01 1021.16 1021.22 1021.23
1010.79 1011.42 1011.96 1012.34 1012.52 1012.55 1012.50 1012.45 1012.51 1012.72 1013.07 1013.53 1014.02 1014.46 1014.76 1014.89 1014.85 1014.68 1014.46 1014.25 1014.14 1014.16 1014.34 1014.64 1015.01 1015.42 1015.79 1016.11 1016.38 1016.61 1016.84 1017.11 1017.45 1017.87 1018.37 1018.92 1019.48 1020.00 1020.45 1020.81 1021.07 1021.24 1021.34
1010.03 1010.72 1011.34 1011.81 1012.08 1012.17 1012.14 1012.10 1012.14 1012.31 1012.63 1013.07 1013.56 1014.01 1014.35 1014.53 1014.54 1014.42 1014.22 1014.03 1013.91 1013.90 1014.03 1014.27 1014.60 1014.95 1015.28 1015.58 1015.82 1016.03 1016.24 1016.49 1016.81 1017.22 1017.72 1018.28 1018.87 1019.44 1019.96 1020.40 1020.75 1021.02 1021.22
1009.24 1009.95 1010.64 1011.17 1011.51 1011.64 1011.65 1011.61 1011.63 1011.78 1012.07 1012.49 1012.97 1013.43 1013.81 1014.05 1014.12 1014.05 1013.90 1013.73 1013.60 1013.57 1013.65 1013.85 1014.12 1014.43 1014.73 1015.00 1015.23 1015.44 1015.64 1015.88 1016.19 1016.57 1017.05 1017.59 1018.17 1018.75 1019.30 1019.79 1020.21 1020.56 1020.85
1008.49 1009.19 1009.89 1010.45 1010.82 1010.98 1011.01 1010.97 1010.98 1011.10 1011.37 1011.77 1012.24 1012.73 1013.15 1013.44 1013.58 1013.57 1013.47 1013.33 1013.22 1013.17 1013.22 1013.38 1013.61 1013.88 1014.17 1014.43 1014.66 1014.87 1015.08 1015.31 1015.59 1015.95 1016.37 1016.87 1017.40 1017.96 1018.50 1019.01 1019.48 1019.90 1020.27
1007.83 1008.48 1009.14 1009.69 1010.05 1010.21 1010.24 1010.20 1010.19 1010.30 1010.54 1010.93 1011.41 1011.91 1012.37 1012.72 1012.92 1012.98 1012.94 1012.84 1012.74 1012.69 1012.73 1012.85 1013.06 1013.32 1013.59 1013.86 1014.11 1014.33 1014.55 1014.78 1015.04 1015.35 1015.72 1016.14 1016.61 1017.11 1017.62 1018.13 1018.62 1019.08 1019.52
1007.29 1007.85 1008.43 1008.91 1009.23 1009.36 1009.37 1009.32 1009.31 1009.40 1009.64 1010.02 1010.50 1011.02 1011.51 1011.91 1012.17 1012.30 1012.31 1012.26 1012.19 1012.15 1012.18 1012.29 1012.48 1012.73 1013.01 1013.29 1013.55 1013.80 1014.03 1014.25 1014.49 1014.76 1015.07 1015.42 1015.82 1016.25 1016.71 1017.19 1017.69 1018.19 1018.69
1006.84 1007.29 1007.76 1008.15 1008.39 1008.48 1008.46 1008.40 1008.38 1008.47 1008.71 1009.09 1009.58 1010.11 1010.63 1011.06 1011.38 1011.56 1011.63 1011.62 1011.59 1011.57 1011.60 1011.71 1011.89 1012.13 1012.41 1012.69 1012.98 1013.24 1013.48 1013.70 1013.92 1014.15 1014.41 1014.69 1015.01 1015.38 1015.79 1016.25 1016.74 1017.28 1017.83
1006.46 1006.78 1007.13 1007.40 1007.56 1007.60 1007.55 1007.49 1007.48 1007.59 1007.83 1008.22 1008.71 1009.26 1009.79 1010.25 1010.60 1010.82 1010.94 1010.97 1010.97 1010.97 1011.01 1011.11 1011.28 1011.51 1011.78 1012.06 1012.35 1012.61 1012.86 1013.08 1013.28 1013.48 1013.69 1013.92 1014.19 1014.51 1014.88 1015.31 1015.81 1016.36 1016.96
1006.06 1006.28 1006.51 1006.68 1006.77 1006.77 1006.71 1006.66 1006.68 1006.82 1007.08 1007.48 1007.98 1008.52 1009.05 1009.52 1009.89 1010.14 1010.29 1010.36 1010.38 1010.40 1010.45 1010.54 1010.69 1010.89 1011.13 1011.39 1011.65 1011.90 1012.13 1012.34 1012.53 1012.71 1012.89 1013.09 1013.33 1013.61 1013.96 1014.38 1014.87 1015.44 1016.07
1005.62 1005.75 1005.89 1005.99 1006.03 1006.02 1005.99 1005.98 1006.05 1006.22 1006.52 1006.93 1007.42 1007.95 1008.47 1008.93 1009.30 1009.57 1009.73 1009.83 1009.87 1009.90 1009.95 1010.02 1010.14 1010.29 1010.48 1010.69 1010.90 1011.11 1011.31 1011.49 1011.66 1011.82 1011.99 1012.18 1012.40 1012.67 1013.01 1013.41 1013.91 1014.48 1015.12
1005.11 1005.19 1005.28 1005.35 1005.38 1005.40 1005.42 1005.48 1005.62 1005.85 1006.18 1006.61 1007.09 1007.59 1008.08 1008.51 1008.87 1009.13 1009.31 1009.42 1009.48 1009.51 1009.55 1009.59 1009.66 1009.75 1009.86 1009.99 1010.13 1010.27 1010.41 1010.55 1010.69 1010.84 1011.01 1011.19 1011.41 1011.68 1012.00 1012.41 1012.89 1013.45 1014.09
1004.55 1004.62 1004.71 1004.79 1004.86 1004.94 1005.04 1005.19 1005.41 1005.71 1006.08 1006.50 1006.97 1007.44 1007.88 1008.27 1008.60 1008.85 1009.03 1009.14 1009.21 1009.25 1009.27 1009.27 1009.28 1009.29 1009.31 1009.33 1009.37 1009.42 1009.49 1009.58 1009.68 1009.81 1009.97 1010.15 1010.37 1010.64 1010.96 1011.35 1011.81 1012.34 1012.95
1004.00 1004.10 1004.22 1004.35 1004.49 1004.66 1004.87 1005.12 1005.43 1005.78 1006.18 1006.61 1007.04 1007.46 1007.85 1008.19 1008.47 1008.70 1008.88 1009.00 1009.07 1009.10 1009.10 1009.06 1009.00 1008.93 1008.84 1008.75 1008.68 1008.63 1008.61 1008.63 1008.69 1008.79 1008.93 1009.11 1009.33 1009.59 1009.90 1010.27 1010.69 1011.18 1011.74
1003.54 1003.70 1003.87 1004.08 1004.32 1004.60 1004.91 1005.26 1005.64 1006.04 1006.45 1006.86 1007.24 1007.60 1007.93 1008.21 1008.45 1008.66 1008.82 1008.94 1009.01 1009.04 1009.02 1008.94 1008.82 1008.65 1008.46 1008.27 1008.08 1007.92 1007.82 1007.76 1007.77 1007.84 1007.97 1008.14 1008.35 1008.60 1008.88 1009.22 1009.59 1010.03 1010.52
1003.25 1003.47 1003.73 1004.02 1004.36 1004.73 1005.14 1005.57 1006.00 1006.42 1006.82 1007.19 1007.51 1007.80 1008.05 1008.27 1008.47 1008.64 1008.79 1008.90 1008.98 1009.00 1008.95 1008.84 1008.66 1008.42 1008.14 1007.85 1007.57 1007.32 1007.13 1007.02 1006.98 1007.01 1007.11 1007.27 1007.46 1007.69 1007.95 1008.25 1008.58 1008.95 1009.38
1003.18 1003.47 1003.80 1004.18 1004.60 1005.05 1005.52 1006.00 1006.45 1006.86 1007.22 1007.53 1007.78 1007.99 1008.16 1008.32 1008.46 1008.59 1008.72 1008.82 1008.89 1008.90 1008.84 1008.69 1008.47 1008.17 1007.83 1007.46 1007.11 1006.79 1006.54 1006.38 1006.30 1006.31 1006.39 1006.53 1006.70 1006.91 1007.15 1007.40 1007.69 1008.01 1008.39
1003.36 1003.71 1004.10 1004.54 1005.01 1005.51 1006.01 1006.48 1006.92 1007.29 1007.59 1007.83 1007.99 1008.12 1008.21 1008.29 1008.38 1008.47 1008.57 1008.65 1008.69 1008.69 1008.60 1008.43 1008.17 1007.84 1007.45 1007.04 1006.64 1006.29 1006.01 1005.81 1005.72 1005.71 1005.77 1005.90 1006.06 1006.26 1006.47 1006.70 1006.95 1007.24 1007.57
1003.79 1004.18 1004.61 1005.07 1005.56 1006.06 1006.54 1006.99 1007.37 1007.68 1007.90 1008.05 1008.13 1008.16 1008.18 1008.19 1008.21 1008.25 1008.30 1008.35 1008.36 1008.33 1008.22 1008.02 1007.73 1007.37 1006.96 1006.54 1006.12 1005.76 1005.47 1005.28 1005.17 1005.16 1005.22 1005.34 1005.50 1005.68 1005.88 1006.09 1006.33 1006.60 1006.92
1004.42 1004.82 1005.26 1005.71 1006.18 1006.64 1007.08 1007.46 1007.77 1007.99 1008.13 1008.19 1008.18 1008.14 1008.08 1008.02 1007.98 1007.95 1007.95 1007.94 1007.90 1007.82 1007.67 1007.43 1007.13 1006.75 1006.34 1005.92 1005.52 1005.17 1004.90 1004.71 1004.62 1004.62 1004.68 1004.80 1004.95 1005.13 1005.33 1005.54 1005.78 1006.05 1006.37
1005.20 1005.59 1005.99 1006.41 1006.82 1007.22 1007.58 1007.87 1008.10 1008.23 1008.29 1008.27 1008.19 1008.07 1007.94 1007.82 1007.71 1007.62 1007.54 1007.46 1007.35 1007.20 1007.00 1006.72 1006.39 1006.01 1005.60 1005.19 1004.82 1004.50 1004.25 1004.10 1004.03 1004.03 1004.10 1004.22 1004.37 1004.55 1004.74 1004.96 1005.21 1005.50 1005.84
1006.04 1006.39 1006.74 1007.09 1007.43 1007.74 1008.01 1008.22 1008.35 1008.41 1008.39 1008.31 1008.17 1008.00 1007.81 1007.63 1007.45 1007.29 1007.13 1006.96 1006.77 1006.55 1006.27 1005.95 1005.58 1005.18 1004.78 1004.39 1004.05 1003.76 1003.55 1003.42 1003.37 1003.39 1003.46 1003.57 1003.72 1003.89 1004.08 1004.31 1004.57 1004.88 1005.24
1006.87 1007.16 1007.44 1007.71 1007.96 1008.18 1008.36 1008.48 1008.54 1008.54 1008.46 1008.33 1008.16 1007.95 1007.73 1007.49 1007.26 1007.02 1006.77 1006.52 1006.23 1005.92 1005.57 1005.19 1004.78 1004.37 1003.97 1003.59 1003.27 1003.01 1002.83 1002.71 1002.67 1002.68 1002.74 1002.84 1002.96 1003.12 1003.31 1003.53 1003.80 1004.12 1004.51
Thickness
5828 5829 5827 5825 5821 5817 5814 5812 5809 5807 5805 5801 5797 5794 5791 5792 5791 5791 5790 5789 5787 5785 5783 5781 5779 5778 5775 5774 5772 5770 5767 5764 5764 5760 5756 5758 5760 5759 5759 5759 5758 5757 5756
5824 5825 5825 5824 5820 5816 5813 5811 5809 5807 5805 5803 5801 5797 5794 5792 5791 5790 5789 5788 5786 5784 5782 5780 5777 5776 5774 5772 5770 5767 5763 5761 5761 5755 5749 5745 5747 5752 5755 5754 5753 5753 5752
5824 5823 5823 5822 5819 5816 5814 5813 5809 5807 5806 5804 5801 5797 5793 5790 5787 5786 5786 5786 5785 5783 5781 5779 5776 5774 5772 5769 5768 5766 5762 5757 5756 5755 5749 5740 5736 5740 5745 5748 5748 5748 5747
5826 5823 5821 5818 5817 5818 5817 5814 5811 5808 5806 5804 5799 5794 5788 5784 5784 5784 5784 5784 5783 5781 5779 5777 5775 5772 5770 5767 5766 5764 5761 5757 5751 5751 5751 5748 5743 5736 5733 5737 5741 5743 5742
5828 5825 5824 5821 5818 5818 5815 5813 5810 5807 5805 5802 5798 5793 5789 5786 5785 5783 5781 5780 5780 5779 5777 5775 5772 5770 5768 5765 5763 5761 5758 5755 5750 5747 5745 5743 5741 5738 5731 5727 5731 5734 5737
5829 5827 5825 5822 5818 5815 5813 5811 5807 5804 5802 5799 5796 5792 5788 5785 5782 5780 5778 5777 5776 5775 5774 5772 5770 5767 5765 5762 5760 5757 5754 5752 5750 5747 5744 5740 5736 5733 5730 5725 5724 5725 5729
5826 5824 5821 5818 5816 5813 5810 5808 5805 5801 5799 5796 5793 5791 5788 5785 5781 5779 5776 5774 5772 5771 5770 5770 5767 5765 5763 5760 5757 5754 5751 5749 5746 5744 5741 5739 5737 5735 5731 5726 5722 5721 5723
5823 5821 5820 5818 5815 5812 5808 5806 5802 5799 5797 5794 5790 5789 5787 5784 5781 5779 5776 5774 5772 5771 5769 5767 5765 5762 5760 5758 5754 5751 5748 5746 5743 5741 5739 5737 5736 5735 5732 5727 5722 5716 5716
5819 5818 5818 5815 5813 5809 5806 5804 5801 5797 5795 5792 5788 5786 5784 5782 5780 5778 5775 5773 5772 5770 5767 5764 5761 5759 5757 5754 5751 5748 5745 5743 5741 5739 5737 5736 5735 5733 5731 5729 5725 5717 5710
5816 5814 5813 5811 5810 5808 5806 5803 5800 5796 5794 5790 5787 5785 5782 5780 5779 5776 5773 5771 5770 5767 5764 5761 5758 5755 5753 5750 5748 5744 5743 5740 5737 5736 5734 5732 5731 5730 5728 5726 5724 5721 5714
5815 5813 5812 5810 5809 5807 5804 5800 5797 5794 5790 5788 5786 5783 5780 5778 5776 5773 5771 5769 5767 5764 5761 5758 5755 5751 5748 5746 5743 5740 5738 5736 5733 5732 5730 5728 5727 5725 5724 5722 5720 5716 5712
5814 5813 5810 5807 5804 5802 5800 5798 5795 5792 5789 5787 5784 5780 5778 5775 5772 5770 5769 5766 5763 5761 5758 5755 5751 5748 5745 5743 5739 5736 5734 5731 5728 5727 5725 5723 5722 5720 5719 5716 5714 5712 5709
5811 5808 5807 5805 5803 5800 5798 5796 5794 5791 5788 5785 5780 5777 5774 5771 5769 5767 5765 5763 5760 5757 5755 5751 5747 5744 5741 5739 5736 5733 5730 5727 5725 5722 5720 5718 5716 5714 5712 5711 5709 5707 5706
5805 5804 5802 5801 5801 5799 5796 5794 5791 5790 5786 5781 5777 5773 5771 5769 5766 5764 5761 5759 5756 5753 5751 5747 5744 5741 5738 5735 5732 5729 5726 5723 5721 5719 5717 5714 5712 5709 5707 5705 5703 5701 5698
5799 5799 5798 5796 5795 5794 5792 5791 5788 5785 5783 5778 5773 5769 5768 5765 5762 5760 5757 5755 5752 5750 5746 5743 5740 5737 5734 5732 5728 5725 5722 5719 5716 5714 5712 5711 5709 5707 5704 5702 5698 5696 5692
5796 5795 5794 5793 5791 5790 5788 5786 5782 5780 5777 5772 5768 5765 5763 5760 5757 5755 5752 5749 5746 5744 5741 5738 5735 5732 5731 5728 5725 5722 5718 5715 5712 5709 5707 5706 5704 5702 5700 5698 5696 5693 5689
5792 5790 5789 5788 5786 5785 5784 5780 5777 5774 5770 5766 5762 5760 5757 5754 5752 5749 5746 5742 5740 5737 5735 5732 5730 5727 5725 5723 5721 5718 5714 5710 5707 5705 5702 5701 5700 5697 5694 5692 5691 5689 5687
5789 5787 5785 5784 5783 5781 5778 5774 5771 5768 5764 5761 5757 5754 5752 5749 5746 5742 5739 5736 5734 5731 5728 5726 5724 5722 5720 5718 5715 5712 5708 5705 5703 5701 5698 5695 5693 5692 5688 5686 5684 5682 5681
5787 5784 5783 5781 5777 5774 5772 5768 5764 5760 5756 5755 5752 5749 5746 5743 5739 5735 5732 5730 5727 5724 5722 5721 5718 5715 5713 5712 5709 5706 5701 5698 5697 5696 5694 5691 5688 5686 5684 5679 5676 5675 5674
5783 5780 5778 5775 5771 5769 5767 5762 5757 5752 5750 5749 5748 5745 5742 5738 5733 5730 5726 5724 5721 5718 5716 5714 5711 5709 5706 5705 5703 5700 5695 5692 5689 5688 5687 5685 5683 5680 5678 5674 5670 5667 5667
5776 5774 5770 5766 5764 5763 5760 5754 5750 5747 5746 5745 5743 5739 5735 5731 5727 5724 5720 5717 5714 5711 5708 5706 5704 5702 5700 5698 5696 5693 5689 5686 5683 5680 5678 5677 5676 5674 5671 5669 5666 5665 5663
5767 5766 5761 5759 5758 5756 5751 5746 5743 5743 5741 5738 5735 5731 5727 5724 5722 5717 5713 5710 5706 5702 5700 5697 5695 5694 5692 5690 5688 5685 5682 5679 5676 5673 5672 5670 5669 5666 5665 5663 5662 5660 5658
5758 5756 5754 5751 5749 5747 5744 5739 5737 5736 5733 5730 5726 5723 5720 5716 5713 5709 5705 5702 5698 5694 5691 5688 5686 5684 5683 5682 5679 5677 5674 5672 5668 5666 5665 5663 5661 5659 5658 5657 5656 5654 5651
5749 5747 5744 5740 5738 5738 5736 5734 5732 5729 5725 5720 5717 5714 5711 5707 5705 5702 5698 5694 5690 5687 5684 5681 5679 5676 5674 5672 5670 5668 5665 5663 5660 5657 5656 5655 5653 5651 5651 5649 5648 5646 5644
5739 5738 5735 5732 5729 5728 5726 5725 5723 5720 5715 5711 5708 5705 5702 5699 5695 5692 5689 5687 5685 5682 5678 5676 5673 5669 5667 5666 5663 5660 5657 5654 5651 5648 5646 5644 5643 5642 5641 5640 5639 5638 5637
5729 5727 5725 5723 5720 5719 5716 5715 5714 5711 5706 5702 5699 5696 5693 5690 5687 5683 5680 5679 5677 5675 5672 5670 5667 5664 5662 5660 5656 5653 5650 5647 5644 5640 5637 5636 5635 5633 5633 5632 5631 5630 5630